Regional Weather Roundup
Issued by NWS

Home | Current Version | Previous Version | Text Only | Print | Product List | Glossary On
Versions: 1 2 3 4 5 6 7 8 9 10 11 12 13 14 15 16 17 18 19 20 21 22 23 24 25 26 27 28 29 30 31 32 33 34 35 36 37 38 39 40 41 42 43 44 45 46 47 48 49 50
000
ASUS44 KLIX 181613
RWRLA
LOUISIANA WEATHER ROUNDUP
NATIONAL WEATHER SERVICE NEW ORLEANS LA
1000 AM CST SAT NOV 18 2017

NOTE: "FAIR" INDICATES FEW OR NO CLOUDS BELOW 12,000 FEET WITH NO
      SIGNIFICANT WEATHER AND/OR OBSTRUCTIONS TO VISIBILITY.
      SKY/WX - SKY CONDITION AND SIGNIFICANT WEATHER.
      TMP - AIR TEMPERATURE.    DP   - DEWPOINT TEMPERATURE.
      RH  - RELATIVE HUMIDITY.  PRES - PRESSURE.
      HX  - HEAT INDEX.         WCI  - WIND CHILL INDEX.

*  THESE STATIONS ARE NOT NWS OR FAA STATIONS AND ARE NOT UNDER
   NWS QUALITY CONTROL.

LAZ040-048-061>063-065-066-069-181700-
SOUTHEAST LOUISIANA

CITY           SKY/WX    TMP DP  RH WIND       PRES   REMARKS
N.O. INTL ARPT PTSUNNY   78  69  73 S15G22    29.93F
N.O. LAKEFRONT PTSUNNY   78  66  66 SW22G28   29.94F
N.O. DOWNTOWN* CLOUDY    76  66  71 S15       29.95F
RESERVE*       PTSUNNY   79  67  65 SW14      29.93F
SLIDELL        CLOUDY    76  66  71 S12       29.94S
BATON ROUGE    MOSUNNY   78  66  66 S21G28    29.90F
BOOTHVILLE     SUNNY     78  67  68 S14       29.98S
BELLE CHASSE   NOT AVBL
BOGALUSA*      NOT AVBL
GALLIANO*        N/A    N/A N/A N/A MISG        N/A
NEW ROADS*     FAIR      77  67  71 S15       29.89S
GONZALES*      CLOUDY    77  67  71 SW15G22   29.92S
HAMMOND*       MOSUNNY   73  66  78 S10       29.93S
HOUMA*         PTSUNNY   77  70  78 S14       29.94S
PORT FOURCHON* NOT AVBL

$$

LAZ041-044-053-054-181700-
SOUTHWEST LOUISIANA

CITY           SKY/WX    TMP DP  RH WIND       PRES   REMARKS
LAKE CHARLES   CLOUDY    78  71  79 SW13G23   29.88S
LAFAYETTE      PTSUNNY   76  67  73 S23G32    29.90S
PATTERSON      CLOUDY    77  69  76 SW12G24   29.94R
SALT POINT       N/A     76  68  76 VRB5      29.92R
NEW IBERIA     SUNNY     79  66  64 S16G29    29.91S
CHENAULT AIRPK NOT AVBL

$$

LAZ027-028-181700-
CENTRAL LOUISIANA

CITY           SKY/WX    TMP DP  RH WIND       PRES   REMARKS
FORT POLK      CLOUDY    75  68  79 SW15G23   29.84R
ALEXANDRIA INT CLOUDY    77  67  71 SW21G26   29.81S
ALEXANDRIA     CLOUDY    75  68  78 SW12      29.83S

$$

LAZ001-002-181700-
NORTHWEST LOUISIANA

CITY           SKY/WX    TMP DP  RH WIND       PRES   REMARKS
SHREVEPORT     MOSUNNY   78  66  66 SW20G30   29.77R
BARKSDALE AFB  MOSUNNY   77  64  63 SW20G25   29.76R
DTN SHREVEPORT MOSUNNY   78  65  63 SW18G32   29.76R

$$

LAZ014-016-181700-
NORTHEAST LOUISIANA

CITY           SKY/WX    TMP DP  RH WIND       PRES   REMARKS
MONROE         CLOUDY    77  66  68 SW21G29   29.77R
TALLULAH       CLOUDY    75  67  76 SW12G22   29.80F

$$




USA.gov is the U.S. government's official web portal to all federal, state and local government web resources and services.